Regional Weather Roundup
Issued by NWS

Home | Current Version | Previous Version | Text Only | Print | Product List | Glossary On
Versions: 1 2 3 4 5 6 7 8 9 10 11 12 13 14 15 16 17 18 19 20 21 22 23 24 25 26 27 28 29 30 31 32 33 34 35 36 37 38 39 40 41 42 43 44 45 46 47 48 49 50
961
ASUS44 KEWX 130911
RWRTX
SOUTH TEXAS REGIONAL WEATHER ROUNDUP
NATIONAL WEATHER SERVICE AUSTIN/SAN ANTONIO TX
300 AM CST SAT FEB 13 2016

NOTE: "FAIR" INDICATED FEW OR NO CLOUDS BELOW 12,000 FEET WITH NO
SIGNIFICANT WEATHER AND/OR OBSTRUCTIONS TO VISIBILITY.

* - THESE STATIONS ARE NOT NWS OR FAA STATIONS...AND ARE NOT SUBJECT
    TO NWS AND FAA QUALITY CONTROL.

TXZ171-172-183>190-131000-
TEXAS HILL COUNTRY AND EDWARDS PLATEAU

CITY           SKY/WX    TMP DP  RH WIND       PRES   REMARKS
JUNCTION       CLEAR     40  32  73 NW5       30.31S WCI  37
*LLANO         CLEAR     43  36  75 CALM      30.35R
BURNET         CLEAR     53  35  50 NE10      30.32S
*HORSESHOE BAY CLEAR     42  38  83 CALM      30.31S
*KERRVILLE     CLEAR     42  37  83 CALM      30.30S
*FREDERICKSBRG CLEAR     40  34  80 CALM      30.30S
*ROCKSPRINGS   CLEAR     52  37  58 E7        30.31S
*BOERNE STAGE  CLEAR     41  36  81 CALM      30.30S
*CASTROVILLE   CLEAR     48  37  66 NW6       30.29S WCI  45
HONDO          CLEAR     46  39  76 N9        30.29S WCI  41
*UVALDE        CLEAR     52  42  69 NE8       30.28S
DEL RIO        CLEAR     49  37  63 CALM      30.25F
LAUGHLIN AFB   CLEAR     53  44  70 E8        30.25S
CARRIZO SPRGS  CLEAR     46  41  81 CALM      30.24S
*EAGLE PASS    SUNNY     55  46  71 NE8       30.25S
$$

TXZ173-191>194-202-209-217>225-228-131000-
CENTRAL AND SOUTH CENTRAL TEXAS

CITY           SKY/WX    TMP DP  RH WIND       PRES   REMARKS
GEORGETOWN     CLEAR     54  36  50 N7        30.30F
AUSTIN/BERGSTM CLEAR     48  39  71 N6        30.28F WCI  45
AUSTIN/MABRY   CLEAR     57  38  48 NE6       30.29F
*AUSTIN/EXEC   CLOUDY    52  37  58 N10       30.29S
*LAGO VISTA    CLEAR     54  37  53 NE12      30.30S
SAN MARCOS     CLEAR     52  37  58 N8        30.29S
NEW BRAUNFELS  CLEAR     52  40  63 NE5       30.27S
RANDOLPH AFB   CLEAR     49  43  78 N6        30.28R WCI  47
PT SAN ANTONIO CLEAR     49  42  78 NW5       30.26S WCI  47
SAN ANTONIO    CLEAR     52  42  69 NW5       30.28S
STINSON FIELD  CLEAR     57  42  57 N8        30.26R
*PLEASANTON    CLEAR     49  48  95 CALM      30.28R
*LA GRANGE     CLEAR     50  47  90 CALM      30.26S
*GIDDINGS      CLEAR     52  44  75 NE3       30.32S
*GONZALES      CLEAR     52  51  98 CALM      30.27S
$$

TXZ163>164-176>182-195>201-210>213-226-227-235-131000-
SOUTHEAST TEXAS

CITY           SKY/WX    TMP DP  RH WIND       PRES   REMARKS
COLLEGE STN    CLEAR     55  43  63 NE6       30.30S
*BRYAN         PTCLDY    51  40  65 NE6       30.32S
*CALDWELL      CLEAR     55  39  54 NE7       30.32F
*CROCKETT      CLEAR     46  37  71 CALM      30.35R
*BRENHAM       CLEAR     56  54  94 NE5       30.30S
HUNTSVILLE     MOCLDY    56  44  64 NE5       30.31R
CONROE         MOCLDY    55  45  68 CALM      30.30S
HOUSTON BUSH   PTCLDY    55  52  89 CALM      30.29R
HOUSTON HOBBY  PTCLDY    56  53  90 CALM      30.28R
*HOUSTON SW AP FOG       52  51  99 CALM      30.29R VSB 1/4
PEARLAND       CLEAR     54  51  90 CALM      30.29S
HOUSTON HOOKS  CLEAR     53  52  96 CALM      30.29S
ELLINGTON FLD  PTCLDY    61  55  82 CALM      30.30R
SUGAR LAND     CLEAR     53  53 100 N6        30.28R FOG
*HOUSTON EXEC  CLOUDY    54  54 100 CALM      30.31R
*CLEVELAND MUN CLOUDY    51  49  92 CALM      30.31S
*WHARTON       FOG       52  51  95 CALM      30.28S VSB 1/4
*COLUMBUS      FAIR      51  50  98 CALM      30.27F
*EAGLE LAKE    FOG       49  48  99 CALM      30.28S VSB<1/4
$$

TXZ214>216-236>238-131000-
THE UPPER TEXAS COAST

CITY           SKY/WX    TMP DP  RH WIND       PRES   REMARKS
*ORANGE        CLEAR     55  46  70 NE3       30.30S
PORT ARTHUR    CLEAR     57  51  80 NE8       30.28S
GALVESTON      FOG       57  57 100 CALM      30.28F VSB 1/4
ANGLETON       FOG       53  53 100 CALM      30.27S VSB 1/4
*BAY CITY      FOG       52  52 100 CALM      30.27S VSB 1/4
PALACIOS       MOCLDY    52  52 100 S3        30.26F FOG
$$

TXZ229>234-239>247-131000-
TEXAS COASTAL BEND AND RIO GRANDE PLAINS

CITY           SKY/WX    TMP DP  RH WIND       PRES   REMARKS
VICTORIA       FOG       51  51 100 E3        30.27S VSB 1/2
*BEEVILLE      FOG       45  45 100 CALM      30.26S VSB 1/4
ROCKPORT       CLEAR     59  56  89 SE5       30.26S FOG
*PORT ARANSAS  PTCLDY    60  60  99 SE5       30.25S
*PORT LAVACA   FOG       52  52 100 S3        30.26F VSB 1/2
*INGLESIDE     FOG       48  47  99 CALM      30.25S VSB 3/4
CORPUS CHRISTI CLEAR     52  51  97 SE3       30.25F FOG
CORPUS NAS     PTCLDY    61  61 100 S5        30.25F
*ROBSTOWN      FOG       54  53  99 SE6       30.26S VSB 1/2
ALICE          FOG       49  49 100 CALM      30.25S VSB 1/4
KINGSVILLE NAS FOG       48  48 100 CALM      30.25S VSB 1/4
COTULLA        CLEAR     55  51  86 E7        30.25S
*FAITH RANCH   CLEAR     57  50  77 E7        30.23S
LAREDO         CLEAR     56  51  84 E7        30.24S
$$

TXZ248>255-131000-
DEEP SOUTH TEXAS

CITY           SKY/WX    TMP DP  RH WIND       PRES   REMARKS
BROWNSVILLE    MOCLDY    57  57 100 SE5       30.25F
PORT ISABEL    CLEAR     61  59  93 S6        30.23F
*SOUTH PADRE     N/A     63  63 100 S5        30.24F
HARLINGEN      PTCLDY    58  56  93 SE9       30.23F
*HEBBRONVILLE  NOT AVBL
MCALLEN        MOCLDY    56  53  90 S3        30.23F FOG
*WESLACO       PTCLDY    58  56  93 SE6       30.23F
FALFURRIAS     CLOUDY    53  52  95 NE3       30.24S VSB 1/4
EDINBURG       CLEAR     59  57  92 SE3       30.24S
*ZAPATA        CLEAR     58  58  99 SE6       30.22S
$$

TXZ213>215-236>238-242>244-246-247-251-254-255-131000-
CMAN STATIONS

STATION/POSITION TIME  TEMP    WIND        PRES    WAVE
                       AIR SEA DIR/SP/G            HT/PER
                 (UTC) (F)     (DEG/KT/KT) (MB)    (FT/S)
SABINE PASS      0800   60 59  330/  3/  3 1026.6
SEA RIM ST PARK  0900   58      10/  4/  4 1025.8
NORTH JETTY/GLS  0800   61 61  300/  1/  2   N/A
EAGLE POINT      0800   60 58  310/  3/  3 1025.2
MORGANS POINT    0800   62 55  260/  3/  3 1025.2
MISSION/ARANSAS  0800   64                 1025.0
PORT O`CONNOR    0800          140/  3/  3   N/A
PORT ARANSAS     0900   63 64  120/  3/  4 1025.0
MALAQUITE BEACH  0800   64 64  130/  7/  8 1024.4
BAFFIN BAY       0800   63 64  150/  5/  6 1024.3
PORT ISABEL      0800   64 63  120/  4/  4 1024.2
$$

GMZ080-GMZ150>470-131000-
OFFSHORE BUOY REPORTS

STATION/POSITION TIME  TEMP    WIND        PRES    WAVE
                       AIR SEA DIR/SP/G            HT/PER
                 (UTC) (F)     (DEG/KT/KT) (MB)    (FT/S)
20 E GALVESTON   0850   60 59  310/  2/  2 1025.2    2/ 6
90 E PT ARANSAS  0850   68 66  170/  4/  6 1024.7    2/ 6
35 NE PT MANSFLD 0850   68 65  160/ 10/ 12 1024.1    2/ 6
200 E PT ISABEL  0850                        N/A     1/ 6
$$




USA.gov is the U.S. government's official web portal to all federal, state and local government web resources and services.